User: anonymous   Login
Location: Unspecified
(0.0000°N, 0.0000°E)
Time: 23:10:26
(UTC+00:00)
Language:

SR - Orbit

View from above orbital plane
View from above orbital plane
View from above satellite
View from above satellite

Ground track
Ground track

The orbit data is extracted from the following two-line orbital elements,

1    46U 60007B   18346.54563548  .00000031  00000-0  29264-4 0  9996
2    46  66.6907 100.3560 0211251 185.2849 174.6032 14.49191338 58986
Epoch (UTC): 12 December 2018 13:05:42
Eccentricity: 0.0211251
inclination: 66.6907°
perigee height: 578 km
apogee height: 878 km
right ascension of ascending node: 100.3560°
argument of perigee: 185.2849°
revolutions per day: 14.49191338
mean anomaly at epoch: 174.6032°
orbit number at epoch: 5898

The dashed part of the orbit path shows where the satellite is in the earth's shadow,  

DLR